Location: ?????????
(55.6553°N, 38.9075°E)
Time: 06:09:55
(UTC+00:00)

Cosmos 1269 Rocket - Pass Details

Date: 18 October 2019
Orbit: 772 x 780 km, 74.1° (Epoch: 17 November)

Event Time Altitude Azimuth Distance (km) Brightness Sun altitude
Exits shadow 00:33:28 60° 11° (N) 891 4.4 -29.1°
Drops below altitude 10° 00:37:51 10° 27° (NNE) 2,345 7.2 -28.5°
Sets 00:40:15 0° 29° (NNE) 3,277 8.1 -28.2°
